Wind_Speed
20 21 23 24 25 26 27 30 32 34 37 40 41 43 44 45 47 48 50 53 55 57 59 61 63 65 66 68 69 70 71 72 72 71 70 69 68 64 60 57 52 48 44 42
21 22 24 26 26 28 30 31 33 35 38 40 42 44 46 49 52 55 58 60 63 65 67 69 71 73 74 76 77 78 78 79 78 79 77 77 75 70 65 62 58 54 49 45
23 25 27 28 28 30 31 33 34 37 41 44 47 50 53 56 60 63 66 70 72 75 77 78 79 80 81 81 82 83 84 84 84 83 82 81 79 75 71 66 63 59 53 50
25 27 28 28 29 31 33 35 39 43 47 50 54 57 60 64 69 71 74 77 79 78 77 74 71 68 67 67 68 69 70 72 74 76 78 78 78 76 73 69 66 61 56 52
26 27 30 29 31 35 38 42 45 49 52 56 60 63 67 72 76 78 79 77 73 66 60 54 50 47 46 45 45 46 48 49 52 55 58 60 63 66 67 66 64 60 56 52
28 29 32 35 38 40 44 48 51 55 59 63 67 70 73 77 78 76 69 61 54 48 43 41 39 39 38 37 36 36 35 35 35 35 37 40 43 47 50 53 54 53 51 48
30 33 36 38 41 44 47 52 56 60 64 68 73 76 78 76 70 60 52 47 43 41 40 40 40 41 41 40 39 38 36 34 31 30 28 28 29 32 36 39 42 45 47 45
33 36 40 43 45 48 52 56 61 65 69 73 76 77 73 64 54 47 43 42 41 40 40 41 42 43 43 42 42 41 39 37 34 31 29 27 25 25 28 32 35 37 43 45
35 37 41 46 50 53 57 61 65 70 74 77 77 71 61 50 43 41 41 41 42 43 43 44 45 46 45 44 44 43 42 40 37 34 30 29 27 27 27 29 33 36 40 44
38 41 44 48 52 56 61 65 69 74 76 75 69 58 47 41 40 40 41 43 45 45 46 47 48 48 48 48 47 45 43 41 38 35 32 30 29 27 27 27 32 36 39 42
41 44 47 50 55 59 63 67 72 75 73 67 58 47 41 39 40 42 44 46 47 49 50 50 51 51 50 49 48 44 42 40 37 35 33 31 29 28 27 27 30 36 41 41
44 48 51 54 58 62 65 70 74 74 68 56 47 41 39 40 43 45 47 48 50 52 53 53 52 50 49 48 45 41 38 36 34 32 31 31 30 29 29 28 28 31 37 41
46 49 52 56 59 64 69 73 74 69 59 47 40 38 41 43 45 48 50 52 52 53 53 51 49 48 45 42 39 37 34 33 32 30 29 29 29 29 27 26 26 28 33 38
48 51 54 57 61 66 71 74 71 61 50 42 39 40 43 46 48 51 52 53 53 52 50 49 47 43 40 37 34 31 29 28 27 27 26 25 26 27 25 25 26 28 33 39
48 52 56 59 63 68 73 74 68 55 45 39 39 42 45 48 51 53 54 53 51 50 48 45 42 39 35 32 28 25 22 21 21 23 24 24 24 25 24 25 27 30 35 40
49 53 57 61 65 70 73 72 64 51 42 38 40 44 47 51 52 53 52 50 49 48 45 41 36 32 28 24 20 17 15 16 17 19 21 21 23 24 25 27 30 33 36 39
50 54 59 63 66 71 73 69 59 48 41 39 42 46 49 51 51 51 50 48 46 44 40 36 32 27 22 16 11 7 8 11 15 18 20 21 23 25 27 30 33 35 38 40
52 56 60 64 68 71 72 64 54 46 41 41 44 48 49 50 49 49 48 46 44 40 35 32 28 22 15 9 4 4 8 13 17 19 21 22 24 27 28 32 35 37 40 40
52 56 60 64 68 71 70 61 52 45 41 42 45 47 48 48 47 48 46 42 39 36 33 29 25 19 13 9 9 12 15 18 20 21 22 24 27 28 31 36 38 39 40 40
52 56 60 64 67 70 68 60 51 44 42 43 45 46 47 46 45 45 43 41 39 36 33 28 24 19 16 15 16 18 20 21 23 24 25 27 29 31 34 37 38 40 39 38
52 55 59 63 66 68 66 59 50 43 41 42 44 45 46 44 43 43 41 40 39 36 32 28 24 21 18 18 19 22 24 25 26 27 28 30 31 33 36 38 38 38 37 38
51 55 59 62 65 67 64 57 49 42 40 41 42 43 43 40 39 40 40 38 36 32 30 28 26 24 22 22 23 25 27 28 29 30 31 32 33 34 36 37 36 35 35 35
51 54 58 61 64 65 62 55 48 41 39 39 40 41 40 37 37 38 37 35 33 30 28 27 25 24 25 26 27 27 29 30 32 32 32 32 32 32 33 34 33 32 32 32
50 53 57 59 62 63 61 54 46 39 36 37 38 38 37 34 33 33 33 32 30 28 27 27 26 26 26 27 28 28 29 30 30 30 30 30 30 30 31 31 30 30 29 29
49 52 55 58 60 62 60 53 44 36 33 33 34 34 33 31 30 30 29 28 26 26 25 26 26 25 25 25 26 26 27 27 27 27 27 27 26 27 28 28 27 27 27 27
48 51 54 56 58 60 58 52 43 35 30 29 30 30 29 27 27 26 26 24 22 22 23 23 24 24 23 23 24 24 24 24 23 23 24 24 24 25 25 26 25 25 24 24
47 50 52 54 56 57 56 51 43 35 29 27 27 27 26 24 23 23 22 21 19 19 19 20 21 22 22 22 22 22 21 21 21 20 20 21 22 23 24 24 23 22 22 21
Wind_Direction
321 320 319 318 318 316 311 309 306 304 301 303 303 303 302 300 299 297 295 293 291 289 287 285 283 281 279 277 275 274 273 272 272 272 272 272 271 270 269 269 270 272 274 276
325 323 320 319 319 315 312 310 308 307 306 306 305 304 303 303 301 299 297 295 293 291 289 286 284 281 279 277 275 273 272 271 271 270 269 270 270 269 268 267 268 269 271 272
327 324 320 321 320 316 314 312 311 310 309 308 306 306 306 304 302 300 299 297 295 293 291 288 286 284 282 279 277 275 274 272 272 271 270 269 268 268 266 265 266 266 266 267
326 323 321 322 319 315 313 313 311 309 308 308 308 308 307 306 304 303 301 300 298 297 296 294 293 291 289 286 284 281 278 276 274 273 270 268 266 265 263 261 261 260 261 261
327 323 319 321 318 315 314 313 311 311 311 311 310 310 310 308 307 306 304 303 302 302 301 301 300 299 298 297 295 292 288 283 280 277 273 269 265 263 261 258 257 255 255 255
325 321 319 320 317 317 316 315 315 315 314 314 313 313 312 310 308 308 307 306 306 305 305 305 304 304 303 303 302 301 299 295 291 287 280 273 267 261 256 252 249 246 243 242
322 319 319 319 319 319 318 317 317 317 317 317 316 315 313 312 311 310 310 310 309 307 307 306 304 303 301 300 298 296 295 295 293 290 285 279 270 260 251 245 240 234 229 228
322 322 322 322 321 321 320 319 320 320 320 319 318 317 315 314 314 313 313 312 310 309 308 306 305 303 301 299 296 293 291 290 288 286 281 278 271 264 255 245 234 226 219 216
324 324 322 322 322 322 323 323 323 323 322 321 320 319 318 317 316 315 315 314 312 311 309 307 305 303 300 298 294 290 288 286 284 280 276 273 269 263 257 247 235 224 217 213
325 325 325 325 324 325 325 325 325 325 325 324 322 321 321 320 318 317 316 314 313 311 310 308 306 303 300 297 293 289 285 282 277 273 270 267 265 260 253 248 237 225 216 214
326 325 326 327 327 327 328 328 328 328 327 325 324 325 324 323 321 320 318 316 314 313 311 308 305 303 300 297 293 288 284 279 273 268 263 259 257 255 250 245 241 230 220 215
327 327 328 330 329 329 330 330 331 331 331 328 327 327 327 326 325 323 321 319 316 314 312 310 307 304 301 297 292 286 282 276 270 264 257 253 250 249 246 243 237 227 219 214
328 329 330 330 331 332 333 334 335 334 333 331 330 330 330 329 328 326 324 321 319 317 315 312 309 306 302 298 293 287 280 272 265 258 252 248 244 241 238 234 229 219 213 206
330 330 331 333 334 335 336 337 338 337 335 334 333 332 332 331 330 329 327 325 322 321 318 315 312 308 304 300 294 286 277 267 258 248 242 238 232 228 226 223 217 208 201 195
331 331 333 335 337 338 339 341 341 340 338 336 335 334 334 333 333 332 330 328 326 324 321 318 315 312 307 302 294 284 270 258 246 235 228 224 219 216 213 209 202 194 188 185
333 334 336 338 339 340 341 343 343 342 340 338 338 337 337 336 336 336 334 333 330 328 325 323 322 319 314 308 297 281 258 240 225 215 210 207 203 200 197 192 187 182 179 178
334 336 338 340 341 342 344 345 345 343 342 341 341 341 341 340 340 339 339 337 335 333 332 333 334 331 327 322 308 274 229 206 196 190 187 185 184 183 182 179 176 175 173 173
336 338 340 341 342 344 346 347 346 344 343 343 344 345 345 345 345 345 345 343 342 344 344 345 346 346 350 356 23 114 147 158 161 162 165 167 168 169 171 171 169 168 168 168
337 339 341 342 343 345 347 348 348 346 345 345 347 349 349 348 348 348 350 351 353 355 357 359 2 9 21 42 82 109 125 135 141 145 148 151 153 157 160 163 163 163 164 165
338 340 341 343 344 346 348 349 349 347 347 348 350 351 351 351 352 353 356 1 3 5 10 15 23 36 52 72 93 109 119 125 130 134 138 142 148 153 157 159 161 162 162 164
338 340 342 344 345 347 349 350 350 349 349 350 352 353 354 355 357 0 6 11 13 15 20 28 39 52 66 84 99 108 115 120 124 128 132 137 142 147 152 155 156 157 161 162
338 340 342 344 346 348 350 350 351 351 351 352 354 356 357 359 3 6 12 17 20 23 30 39 50 60 72 88 100 108 113 117 122 126 130 133 138 143 149 152 154 156 158 160
338 340 343 345 347 349 350 351 352 351 352 353 355 358 1 3 6 11 17 21 26 32 37 46 57 67 77 88 97 104 109 114 118 123 127 132 137 142 147 151 154 156 158 161
338 340 343 345 347 349 351 352 352 352 353 354 356 358 3 7 10 14 18 24 32 38 43 51 61 71 81 90 97 103 108 113 118 123 128 132 136 142 147 151 154 157 160 163
337 340 342 345 347 349 351 352 353 353 353 355 357 0 5 9 13 18 22 28 35 41 48 57 66 75 84 93 98 103 107 112 117 123 129 134 140 145 151 154 156 159 162 164
337 340 342 344 347 349 351 352 353 353 354 356 359 3 7 11 16 21 26 31 37 46 55 63 71 79 87 95 100 104 108 112 117 124 131 138 144 150 154 158 160 162 165 167
336 339 341 344 346 348 350 352 353 353 354 356 360 5 9 13 18 23 28 35 45 54 63 70 76 84 91 97 102 106 109 112 118 126 134 141 148 154 158 161 164 167 171 174
Height
5845 5841 5838 5834 5831 5827 5823 5820 5816 5811 5804 5798 5792 5786 5781 5774 5768 5762 5756 5750 5744 5738 5733 5728 5722 5717 5712 5708 5704 5700 5697 5694 5692 5690 5690 5690 5691 5693 5695 5697 5699 5701 5703 5704
5841 5837 5833 5829 5826 5821 5817 5812 5807 5801 5795 5789 5782 5775 5769 5762 5754 5747 5740 5732 5725 5718 5712 5706 5700 5694 5689 5684 5680 5676 5673 5670 5668 5667 5667 5668 5669 5672 5675 5678 5681 5685 5688 5690
5837 5832 5828 5823 5820 5814 5809 5804 5799 5793 5787 5778 5771 5763 5756 5747 5738 5729 5721 5712 5703 5695 5687 5679 5672 5666 5661 5656 5651 5648 5645 5642 5640 5639 5641 5642 5644 5648 5652 5657 5662 5667 5671 5675
5832 5828 5823 5821 5814 5808 5802 5796 5790 5783 5775 5766 5757 5749 5740 5729 5719 5709 5699 5688 5678 5668 5659 5651 5644 5637 5631 5626 5622 5618 5615 5613 5611 5611 5612 5614 5617 5622 5628 5634 5640 5647 5652 5658
5827 5822 5816 5814 5807 5800 5794 5787 5780 5771 5762 5753 5743 5734 5724 5709 5697 5685 5674 5663 5652 5643 5635 5628 5622 5616 5611 5607 5602 5598 5594 5591 5589 5587 5587 5588 5591 5595 5601 5609 5617 5625 5633 5640
5821 5816 5811 5806 5798 5791 5784 5775 5766 5757 5747 5737 5725 5715 5705 5690 5676 5663 5651 5641 5633 5626 5620 5614 5609 5604 5599 5594 5590 5585 5581 5578 5575 5572 5571 5570 5571 5574 5579 5585 5594 5603 5613 5621
5816 5810 5804 5798 5789 5782 5775 5766 5755 5744 5732 5720 5708 5694 5681 5667 5654 5642 5633 5626 5619 5614 5608 5603 5598 5592 5588 5583 5579 5575 5571 5568 5565 5563 5561 5559 5559 5560 5563 5568 5575 5583 5594 5604
5810 5803 5797 5788 5780 5772 5764 5752 5740 5729 5716 5703 5690 5674 5660 5646 5636 5627 5621 5615 5608 5603 5598 5592 5586 5580 5575 5570 5566 5562 5559 5557 5555 5553 5552 5551 5551 5551 5553 5556 5562 5569 5578 5588
5804 5799 5789 5779 5769 5760 5749 5738 5726 5713 5700 5685 5670 5656 5643 5632 5624 5617 5610 5604 5597 5591 5585 5579 5572 5566 5560 5556 5551 5547 5545 5543 5542 5541 5541 5541 5541 5543 5544 5546 5550 5557 5565 5574
5796 5788 5780 5771 5760 5750 5738 5726 5713 5698 5682 5667 5652 5639 5629 5622 5615 5608 5601 5593 5586 5579 5571 5565 5558 5550 5544 5539 5534 5531 5528 5527 5527 5528 5529 5530 5531 5532 5535 5537 5541 5547 5553 5561
5787 5780 5772 5762 5750 5739 5727 5714 5700 5684 5666 5650 5637 5628 5620 5612 5605 5598 5590 5582 5573 5565 5557 5549 5541 5534 5527 5521 5516 5513 5511 5510 5511 5513 5515 5518 5520 5522 5525 5528 5531 5536 5543 5551
5780 5771 5761 5752 5741 5729 5716 5702 5686 5670 5654 5639 5626 5619 5612 5604 5596 5587 5578 5569 5560 5550 5541 5532 5523 5516 5509 5502 5498 5495 5494 5494 5495 5498 5501 5505 5508 5511 5514 5518 5521 5526 5534 5542
5772 5763 5754 5743 5732 5718 5704 5689 5672 5655 5640 5629 5620 5612 5604 5596 5587 5577 5567 5556 5545 5535 5525 5515 5506 5498 5491 5485 5481 5478 5478 5479 5481 5484 5488 5492 5497 5501 5505 5509 5514 5520 5527 5536
5764 5755 5746 5734 5722 5708 5693 5677 5660 5644 5631 5621 5614 5606 5597 5587 5577 5566 5555 5543 5531 5520 5509 5499 5489 5481 5475 5469 5466 5463 5463 5464 5467 5471 5476 5482 5487 5492 5497 5503 5508 5515 5523 5533
5759 5748 5737 5726 5713 5699 5683 5666 5650 5636 5625 5616 5608 5599 5589 5579 5568 5556 5543 5531 5519 5507 5495 5485 5475 5468 5461 5456 5452 5451 5451 5453 5456 5461 5467 5474 5480 5486 5492 5498 5505 5512 5522 5532
5752 5741 5729 5717 5704 5689 5673 5657 5642 5629 5619 5611 5603 5593 5582 5570 5558 5546 5533 5520 5507 5495 5484 5473 5464 5456 5450 5445 5442 5441 5443 5445 5449 5455 5461 5468 5475 5482 5488 5495 5503 5512 5522 5533
5745 5734 5721 5709 5696 5681 5665 5649 5634 5623 5614 5606 5597 5587 5576 5564 5551 5539 5526 5513 5499 5487 5475 5466 5457 5449 5443 5439 5437 5437 5438 5441 5446 5452 5458 5465 5473 5480 5487 5495 5504 5513 5524 5535
5737 5726 5713 5701 5688 5674 5659 5644 5630 5619 5610 5601 5592 5582 5570 5558 5545 5533 5520 5507 5495 5483 5472 5462 5454 5446 5441 5438 5436 5436 5438 5442 5448 5454 5460 5467 5474 5482 5489 5497 5507 5516 5527 5537
5731 5720 5708 5695 5681 5667 5653 5638 5626 5616 5606 5598 5588 5577 5566 5554 5542 5529 5517 5504 5493 5481 5471 5462 5454 5448 5444 5441 5440 5441 5444 5448 5453 5459 5465 5472 5478 5486 5494 5503 5512 5522 5532 5541
5725 5714 5703 5690 5676 5662 5648 5634 5623 5612 5603 5595 5585 5575 5564 5553 5541 5529 5517 5505 5494 5483 5474 5466 5459 5454 5451 5449 5449 5450 5453 5457 5461 5467 5473 5479 5486 5493 5501 5510 5519 5529 5538 5547
5719 5709 5697 5685 5672 5658 5644 5631 5620 5610 5601 5593 5583 5574 5563 5553 5542 5531 5520 5510 5500 5490 5482 5474 5468 5464 5461 5459 5459 5461 5463 5467 5472 5477 5482 5488 5495 5502 5510 5518 5527 5536 5544 5553
5714 5704 5693 5681 5668 5655 5641 5628 5617 5608 5599 5591 5583 5574 5564 5554 5545 5535 5525 5516 5507 5499 5492 5486 5480 5476 5473 5471 5471 5473 5475 5479 5483 5488 5493 5499 5506 5513 5520 5528 5536 5544 5551 5559
5708 5699 5688 5677 5665 5652 5638 5626 5615 5607 5599 5591 5583 5575 5566 5557 5548 5540 5532 5524 5516 5509 5503 5498 5493 5489 5487 5485 5485 5486 5488 5492 5496 5501 5506 5512 5518 5524 5531 5538 5545 5552 5558 5565
5704 5694 5684 5673 5661 5649 5637 5625 5615 5606 5599 5592 5584 5576 5568 5561 5553 5546 5538 5532 5525 5520 5515 5510 5506 5503 5501 5500 5500 5501 5503 5506 5510 5514 5519 5524 5529 5535 5541 5547 5553 5559 5565 5570
5699 5690 5680 5670 5659 5647 5636 5624 5615 5607 5600 5593 5586 5579 5571 5564 5557 5551 5545 5540 5535 5530 5526 5522 5519 5517 5515 5515 5515 5516 5518 5520 5523 5526 5530 5534 5539 5544 5549 5554 5560 5565 5570 5575
5694 5685 5676 5666 5656 5645 5634 5623 5614 5606 5600 5594 5588 5581 5575 5568 5563 5557 5553 5548 5543 5539 5536 5534 5531 5529 5528 5528 5528 5529 5530 5532 5535 5537 5540 5544 5548 5552 5556 5561 5565 5570 5574 5579
5688 5681 5672 5663 5653 5642 5632 5622 5613 5606 5599 5594 5589 5583 5577 5572 5567 5563 5559 5555 5552 5548 5545 5543 5542 5540 5539 5539 5539 5540 5541 5543 5544 5547 5549 5552 5555 5558 5562 5566 5570 5574 5578 5582